North Adams, MA

10:37 AM EST on February 23, 2017 (GMT -0500)
Harriman And West

Weather History for KAQW - November, 2013

Change the Weather History Date:

Monday, November 11, 2013

  Actual Average Record
Temperature  
Mean Temperature 42 °F -  
Max Temperature 46 °F 45 °F 71 °F (2002)
Min Temperature 37 °F 29 °F 21 °F (1999)
Degree Days  
Heating Degree Days 24    
Moisture  
Dew Point 23 °F    
Average Humidity 46    
Maximum Humidity 54    
Minimum Humidity 40    
Precipitation  
Precipitation 0.00 in - - ()
Sea Level Pressure  
Sea Level Pressure 30.02 in    
Wind  
Wind Speed 13 mph (West)    
Max Wind Speed 22 mph    
Max Gust Speed 38 mph    
Visibility 10 miles    
Events      
Averages and records for this station are not official NWS values.
T = Trace of Precipitation, MM = Missing Value Source: NWS Daily Summary

Daily Weather History Graph

Daily Weather History Graph

Search for Another Location

Airport or City:

Trip Planner

Search our weather history database for the weather conditions in past years. The results will help you decide how hot, cold, wet, or windy it might be!

Date:

Astronomy

Nov. 11, 2013 Rise Set
Actual Time 6:39 AM EST 4:33 PM EST
Civil Twilight 6:09 AM EST 5:03 PM EST
Nautical Twilight 5:35 AM EST 5:37 PM EST
Astronomical Twilight 5:02 AM EST 6:10 PM EST
Moon 1:20 PM EST (11/11) 12:13 AM EST (11/11)
Length of Visible Light 10h 54m
Length of Day
9h 53m
Waxing Gibbous, 66% of the Moon is Illuminated
Nov 11
Waxing Gibbous
Nov 17
Full
Nov 25
Last Quarter
Dec 2
New
Dec 9
First Quarter

Hourly Weather History & Observations

Time (EST) Temp. Windchill Dew Point Humidity Pressure Visibility Wind Dir Wind Speed Gust Speed Precip Events Conditions
12:52 AM 37.9 °F 27.3 °F 21.9 °F 53% 29.97 in 10.0 mi West 21.9 mph 34.5 mph N/A   Scattered Clouds
1:52 AM 37.9 °F 27.6 °F 21.9 °F 53% 30.00 in 10.0 mi West 20.7 mph 38.0 mph N/A   Overcast
2:52 AM 37.9 °F 30.0 °F 21.0 °F 51% 30.02 in 10.0 mi West 12.7 mph 24.2 mph N/A   Overcast
3:52 AM 37.9 °F 29.2 °F 21.0 °F 51% 30.05 in 10.0 mi West 15.0 mph 25.3 mph N/A   Mostly Cloudy
4:52 AM 37.9 °F 30.9 °F 21.0 °F 51% 30.08 in 10.0 mi West 10.4 mph 18.4 mph N/A   Overcast
5:52 AM 37.0 °F 30.4 °F 21.9 °F 54% 30.09 in 10.0 mi West 9.2 mph - N/A   Overcast
6:52 AM 37.0 °F 29.3 °F 21.9 °F 54% 30.12 in 10.0 mi West 11.5 mph - N/A   Overcast
7:52 AM 39.0 °F 31.8 °F 23.0 °F 53% 30.13 in 10.0 mi West 11.5 mph - N/A   Partly Cloudy
8:52 AM 39.9 °F 32.9 °F 21.9 °F 49% 30.14 in 10.0 mi West 11.5 mph 19.6 mph N/A   Scattered Clouds
9:52 AM 41.0 °F 32.5 °F 21.9 °F 47% 30.14 in 10.0 mi West 17.3 mph 23.0 mph N/A   Partly Cloudy
10:52 AM 44.1 °F 37.1 °F 23.0 °F 43% 30.11 in 10.0 mi West 15.0 mph 19.6 mph N/A   Clear
11:52 AM 44.1 °F 39.5 °F 23.0 °F 43% 30.08 in 10.0 mi West 8.1 mph - N/A   Clear
12:52 PM 43.0 °F - 23.0 °F 45% 30.05 in 10.0 mi Calm Calm - N/A   Overcast
1:52 PM 45.0 °F 42.6 °F 21.9 °F 40% 30.01 in 10.0 mi SW 4.6 mph - N/A   Overcast
2:52 PM 45.0 °F 40.6 °F 21.9 °F 40% 29.99 in 10.0 mi SW 8.1 mph - N/A   Overcast
3:52 PM 45.0 °F 41.8 °F 23.0 °F 42% 29.99 in 10.0 mi West 5.8 mph - N/A   Overcast
4:52 PM 45.0 °F - 21.9 °F 40% 29.97 in 10.0 mi Calm Calm - N/A   Overcast
5:52 PM 44.1 °F 42.5 °F 23.0 °F 43% 29.97 in 10.0 mi NW 3.5 mph - N/A   Overcast
6:52 PM 44.1 °F 41.5 °F 23.0 °F 43% 29.96 in 10.0 mi Variable 4.6 mph - N/A   Overcast
7:52 PM 45.0 °F 42.6 °F 23.0 °F 42% 29.93 in 10.0 mi West 4.6 mph - N/A   Overcast
8:52 PM 46.0 °F 41.9 °F 24.1 °F 42% 29.93 in 10.0 mi West 8.1 mph - N/A   Overcast
9:52 PM 45.0 °F 39.3 °F 25.0 °F 46% 29.92 in 10.0 mi West 11.5 mph 18.4 mph N/A   Overcast
10:52 PM 46.0 °F 40.6 °F 24.1 °F 42% 29.91 in 10.0 mi West 11.5 mph - N/A   Overcast
11:52 PM 45.0 °F 38.5 °F 27.0 °F 49% 29.91 in 10.0 mi West 13.8 mph 21.9 mph N/A   Overcast